Regional Weather Roundup
Issued by NWS

Home | Current Version | Previous Version | Graphics & Text | Print | Product List | Glossary On
Versions: 1 2 3 4 5 6 7 8 9 10 11 12 13 14 15 16 17 18 19 20 21 22 23 24 25 26 27
000
ASUS45 KBOU 020907
RWRCO

WEATHER ROUNDUP FOR COLORADO
NATIONAL WEATHER SERVICE DENVER/BOULDER CO
200 AM MST FRI DEC 02 2016

NOTE: "FAIR" INDICATES FEW OR NO CLOUDS BELOW 12000 FEET WITH NO
SIGNIFICANT WEATHER AND/OR OBSTRUCTIONS TO VISIBILITY.

COZ001>005-013-030-031-021000-
...NORTHWEST COLORADO...

CITY           SKY/WX    TMP DP  RH WIND       PRES   REMARKS
CRAIG          CLOUDY    16  12  84 CALM      30.09R
HAYDEN         CLOUDY    19  14  79 CALM      30.07R
MEEKER         CLOUDY    20  18  92 S5        30.06R WCI  13
MOUNT WERNER   NOT AVBL
STEAMBOAT SPGS CLOUDY    18  16  95 CALM      30.05R
WALDEN           N/A     12   9  85 CALM      30.02S
$$

COZ006>008-011-021000-
...WEST CENTRAL VALLEYS...

CITY           SKY/WX    TMP DP  RH WIND       PRES   REMARKS
GRAND JUNCTION CLOUDY    29  24  82 CALM      30.05R
MONTROSE       CLOUDY    24  16  71 SW3       30.06S
EAGLE          FLURRIES  21  18  88 S3        30.07R
RIFLE          CLOUDY    25  19  78 SE6       30.07R WCI  18
DELTA          NOT AVBL
NUCLA          CLOUDY    27  18  69 NE5       30.04F WCI  21
$$

COZ017>023-064>068-021000-
...SOUTHWEST COLORADO...

CITY           SKY/WX    TMP DP  RH WIND       PRES   REMARKS
DURANGO        FAIR      20  14  77 CALM      29.98S
CORTEZ         FAIR      17  13  84 CALM      29.99F
PAGOSA SPRINGS FAIR      14  13  95 CALM      29.98F
TELLURIDE      FAIR      15  12  89 SE5       29.97S WCI   7
WOLF CREEK PAS CLOUDY     9   7  92 S8        29.98R WCI  -4
$$

COZ009-010-012-014-032>034-037-058>063-021000-
...CENTRAL COLORADO...

CITY           SKY/WX    TMP DP  RH WIND       PRES   REMARKS
ASPEN          CLOUDY    17  12  80 CALM      30.00R
BUENA VISTA    NOT AVBL
COPPER MTN     MOCLDY    12   5  73 MISG      29.93R
BERTHOUD PASS  MOCLDY     3  -8  60 W3        29.92R
COTTONWOOD PAS CLOUDY    21  10  63 CALM      29.96S
GUNNISON       CLOUDY    10   7  87 CALM      30.03R
KREMMLING      LGT SNOW  21  18  86 CALM      30.06R
LEADVILLE      CLOUDY     4  -1  80 NE6       29.95R WCI  -7
MONARCH PASS   MOCLDY    10   7  85 S14       30.03R WCI  -5
SALIDA         FAIR      15   6  66 W7        30.10R WCI   6
SUNLIGHT       CLOUDY   N/A N/A N/A CALM      30.00R
WILKERSON PASS FAIR      10   5  79 SW6       29.97R WCI   1
$$

COZ069>075-021000-
...SAN LUIS VALLEY/SANGRE DE CRISTO MOUNTAINS...

CITY           SKY/WX    TMP DP  RH WIND       PRES   REMARKS
ALAMOSA        MOCLDY     6   2  83 NW3       30.01R
LA VETA PASS   FAIR      16  10  79 NE15      29.97R WCI   1
SAGUACHE       FAIR      12   9  85 NW9       30.01S WCI   0
$$

COZ035-036-038>040-021000-
...NORTHERN COLORADO FRONT RANGE...

CITY           SKY/WX    TMP DP  RH WIND       PRES   REMARKS
DENVER INTL AP MOCLDY    23  10  57 SE7       30.05R WCI  15
DMNS CITY PARK   N/A     26   9  48 W3        30.06S
AURORA         CLOUDY    25  11  54 W5        30.06R WCI  20
FRONT RANGE AP MOCLDY    21  12  68 SE8       30.06S WCI  12
ERIE MUNI ARPT FAIR      23  12  62 CALM      30.08R
BOULDER MUN AP CLOUDY    30  10  43 W5        30.07R WCI  25
CENTENNIAL     MOCLDY    27   9  46 NW5       30.05R WCI  22
BROOMFIELD     FAIR      27  10  50 N8        30.06R WCI  18
FORT COLLINS   FAIR      25  16  68 CALM      30.08R
LONGMONT       CLOUDY    29  11  48 NW6       30.10R WCI  22
$$

COZ041-046-047-076>085-087-088-021000-
...PIKES PEAK/PALMER DIVIDE AND SOUTHERN FOOTHILLS...

CITY           SKY/WX    TMP DP  RH WIND       PRES   REMARKS
COLO. SPRINGS  MOCLDY    15   2  56 N9        30.05R WCI   3
A. F. ACADEMY  FAIR      11   3  70 N7        30.03R WCI   0
SCHRIEVER AFB  NOT AVBL
ELLICOTT       FAIR     N/A N/A N/A E8        30.03R
FALCON         FAIR      13   4  69 CALM      30.04R
FORT CARSON    CLOUDY    20   6  55 NW6       30.04R WCI  12
LIMON          MOCLDY     9   4  80 W3        30.07R
MONUMENT HILL  FAIR      12   3  67 SW6       30.04R WCI   3
TRINIDAD       FAIR      17   6  62 NW6       30.03S WCI   9
$$

COZ042>045-048>051-090-091-021000-
...NORTHEAST COLORADO...

CITY           SKY/WX    TMP DP  RH WIND       PRES   REMARKS
GREELEY ARPT   FAIR      18  10  71 NW5       30.10R WCI  11
AKRON          CLOUDY    27  17  66 NW3       30.08R
BURLINGTON     FAIR      18   7  62 W9        30.09R WCI   7
WRAY           NOT AVBL
STERLING       FAIR      19  16  86 CALM      30.09R
HOLYOKE        FAIR      21  14  73 N7        30.10R WCI  13
FORT MORGAN    MOCLDY    24  14  66 CALM      30.10R
$$

COZ086-089-092>099-021000-
...SOUTHEAST COLORADO...

CITY           SKY/WX    TMP DP  RH WIND       PRES   REMARKS
PUEBLO         FAIR      17   8  67 SW3       30.07R
LA JUNTA       FAIR      19  11  70 CALM      30.08R
LAMAR          MIX PCPN  12   6  77 CALM      30.09R
SPRINGFIELD      N/A     13   5  70 W3        30.06S
$$




USA.gov is the U.S. government's official web portal to all federal, state and local government web resources and services.